Overview Statistics Trail Chart Weather Telemetry Raw packets
 

This is the latest recevied weather packets stored in our database for station/object EA5GTE-12. If no packets are shown the sender has not sent any weather packets the latest 10 day(s).

<< 19 20 21 22 23 24 25 >>
Time Temp. Humidity Pressure Rain* Wind** Luminosity Snow
1788145711 16.11° C 68% 941.4 hPa - - - -
1788144811 16.11° C 71% 941.3 hPa - - - -
1788143911 16.67° C 70% 941.2 hPa - - - -
1788143011 17.22° C 68% 941.2 hPa - - - -
1788142111 17.22° C 66% 941.2 hPa - - - -
1788141211 17.78° C 64% 941.1 hPa - - - -
1788140484 17.78° C 63% 941.2 hPa - - - -
1788140311 17.78° C 63% 941.2 hPa - - - -
1788139411 18.33° C 62% 941.1 hPa - - - -
1788138511 18.89° C 59% 941.1 hPa - - - -
1788137611 18.89° C 58% 941.1 hPa - - - -
1788136710 18.89° C 59% 941 hPa - - - -
1788135810 19.44° C 57% 941 hPa - - - -
1788134911 19.44° C 57% 941.1 hPa - - - -
1788134010 19.44° C 59% 941.1 hPa - - - -
1788133110 18.89° C 61% 941.2 hPa - - - -
1788132210 20° C 57% 941.1 hPa - - - -
1788131310 20.56° C 55% 941.1 hPa - - - -
1788130410 21.11° C 53% 941.1 hPa - - - -
1788129510 21.11° C 52% 941 hPa - - - -
1788128610 21.67° C 51% 940.9 hPa - - - -
1788127712 21.67° C 50% 940.8 hPa - - - -
1788126812 22.22° C 49% 940.8 hPa - - - -
1788125912 22.22° C 49% 940.8 hPa - - - -
1788125012 22.78° C 47% 940.7 hPa - - - -

* Rain since midnight (hover to see other rain measurements)
** Current wind speed in m/s (hover to see current wind gust speed)